Regional Weather Roundup
Issued by NWS Midland/Odessa, TX

Home | Current Version | Previous Version | Text Only | Print | Product List | Glossary On
Versions: 1 2 3 4 5 6 7 8 9 10 11 12 13 14 15 16 17 18 19 20 21 22 23 24 25 26 27 28 29 30 31 32 33 34 35 36 37 38 39 40 41 42 43 44 45 46 47 48 49 50
000
ASUS44 KMAF 230310
RWRMAF
MIDLAND AREA WEATHER ROUNDUP
NATIONAL WEATHER SERVICE MIDLAND TX
1000 PM CDT FRI AUG 22 2014

...IN SOUTHWEST TEXAS AND SOUTHEAST NEW MEXICO...

CITY           SKY/WX    TMP DP  RH WIND       PRES   REMARKS
ALPINE         CLOUDY    72  61  68 SW12G26   30.17R THUNDER
ANDREWS        FAIR      81  58  45 CALM      30.02R
ARTESIA        MOCLDY    75  55  50 W5        30.03R
BIG SPRING     CLEAR     87  50  27 SE16G22   30.02R
CARLSBAD       MOCLDY    79  62  56 S24G30    30.04R
DRYDEN           N/A     93  42  17 SE17G28   29.95R
FORT STOCKTON  CLOUDY    85  57  38 SE13G21   29.99R
GUAD PASS      MOCLDY    70  59  68 W13       30.17R
HOBBS          CLOUDY    75  59  57 S3        30.04F
MARFA          MOCLDY    77  55  47 E12       30.15R
MIDLAND AIRPK  PTCLDY    88  53  30 SE12G17   30.00R
MIDLAND INTL   PTCLDY    87  57  35 SE17      30.00R
ODESSA         PTCLDY    87  55  33 S21       30.00R
PECOS          CLOUDY    74  66  75 N6        29.98F
PRESIDIO       TSTM      76  67  72 NW12G18   29.97R
SEMINOLE       PTCLDY    79  56  45 W9        30.03S
SNYDER         CLEAR     86  51  29 SE12      30.00R
WINK           CLOUDY    78  68  71 W8        29.99R
$$
...OTHER STATIONS IN TEXAS...

CITY           SKY/WX    TMP DP  RH WIND       PRES   REMARKS
ABILENE        CLEAR     88  51  28 S15G22    29.98R
AMARILLO       PTCLDY    85  55  35 S20       30.01R
AUSTIN         CLEAR     89  62  40 S15G22    29.98R
BROWNSVILLE    PTCLDY    83  77  82 E10       30.00R
CORPUS CHRISTI PTCLDY    83  76  79 SE16      30.00R
DALLAS FTW     CLEAR     90  65  43 SE10      29.95R
DEL RIO        CLEAR     91  44  19 SE9       29.90R
EL PASO        MOCLDY    74  62  66 S6        30.07R
HOUSTON INT    PTCLDY    84  74  71 S7        30.03R
LUBBOCK        PTCLDY    84  50  30 S15       30.01R
SAN ANGELO     CLEAR     84  53  34 SE10      29.98R
SAN ANTONIO    CLEAR     89  62  40 SE22      30.00R
WACO           CLEAR     89  66  46 SE12      29.97R
WICHITA FALLS  NOT AVBL
$$
...OTHER LOCATIONS IN NEW MEXICO...

CITY           SKY/WX    TMP DP  RH WIND       PRES   REMARKS
ALAMAGORDO     PTCLDY    66  63  88 E6        30.10R
ALBUQUERQUE    MOCLDY    64  53  67 CALM      30.16F
CANNON AFB     MOCLDY    70  67  89 S2        30.06R
CLOVIS           N/A     66  63  88 SE8       30.09F
HOLLOMAN AFB   PTCLDY    72  63  73 SE5       30.08R
ROSWELL        CLOUDY    75  56  51 S10       30.02R
RUIDOSO        CLOUDY    59  55  88 NW8       30.26S
SANTA FE       MOCLDY    61  54  77 SW8       30.20S
TRUTH OR CONSE MOCLDY    68  59  73 NE10      30.11R
TUCUMCARI      MOCLDY    78  55  44 SW6       30.01R
$$


USA.gov is the U.S. government's official web portal to all federal, state and local government web resources and services.